Weather History for Hagerstown, MD

Change the Weather History Date:

Monday, November 19, 2012

  Actual Average Record
Temperature  
Mean Temperature 43 °F -  
Max Temperature 48 °F 50 °F 66 °F (2001)
Min Temperature 37 °F 34 °F 19 °F (1997)
Degree Days  
Heating Degree Days 22    
Month to date heating degree days 419  
Moisture  
Dew Point 35 °F    
Average Humidity 75    
Maximum Humidity 85    
Minimum Humidity 65    
Precipitation  
Precipitation 0.00 in - - ()
Month to date precipitation 0.44  
Year to date precipitation 34.84  
Sea Level Pressure  
Sea Level Pressure 30.42 in    
Wind  
Wind Speed 4 mph (North)    
Max Wind Speed 10 mph    
Max Gust Speed 12 mph    
Visibility 8 miles    
Events      
Averages and records for this station are not official NWS values.
T = Trace of Precipitation, MM = Missing Value Source: NWS Daily Summary

Daily Weather History Graph

Daily Weather History Graph

Search for Another Location

Airport:

Trip Planner

Search our weather history database for the weather conditions in past years. The results will help you decide how hot, cold, wet, or windy it might be!

Date:

Astronomy

Nov. 19, 2012 Rise Set
Actual Time 7:00 AM EST 4:52 PM EST
Civil Twilight 6:31 AM EST 5:21 PM EST
Nautical Twilight 5:58 AM EST 5:54 PM EST
Astronomical Twilight 5:26 AM EST 6:26 PM EST
Moon 12:02 PM EST (11/19) 11:16 PM EST (11/19)
Length of Visible Light 10h 49m
Length of Day
9h 51m
Waxing Crescent, 40% of the Moon is Illuminated
Nov 19
Waxing Crescent
Nov 20
First Quarter
Nov 28
Full
Dec 6
Last Quarter
Dec 13
New

Hourly Weather History & Observations

Time (EST) Temp. Windchill Dew Point Humidity Pressure Visibility Wind Dir Wind Speed Gust Speed Precip Events Conditions
12:53 AM 42.1 °F 40.2 °F 36.0 °F 79% 30.54 in 9.0 mi NNE 3.5 mph - N/A   Overcast
1:53 AM 39.0 °F 35.7 °F 35.1 °F 86% 30.54 in 7.0 mi NW 4.6 mph - N/A   Overcast
2:53 AM 39.9 °F 36.7 °F 36.0 °F 86% 30.53 in 7.0 mi NNW 4.6 mph - N/A   Overcast
3:38 AM 39.2 °F 35.0 °F 35.6 °F 87% 30.48 in 6.0 mi NNW 5.8 mph - N/A   Overcast
3:53 AM 39.0 °F 34.0 °F 35.1 °F 86% 30.52 in 6.0 mi NNW 6.9 mph - N/A   Overcast
4:53 AM 39.0 °F 36.8 °F 35.1 °F 86% 30.52 in 7.0 mi NNW 3.5 mph - N/A   Overcast
5:53 AM 37.9 °F 33.5 °F 34.0 °F 86% 30.51 in 7.0 mi North 5.8 mph - N/A   Overcast
6:39 AM 37.4 °F 34.9 °F 33.8 °F 87% 30.45 in 7.0 mi North 3.5 mph - N/A   Scattered Clouds
6:53 AM 37.9 °F 31.5 °F 34.0 °F 86% 30.50 in 7.0 mi North 9.2 mph - N/A   Mostly Cloudy
7:53 AM 39.0 °F 36.8 °F 35.1 °F 86% 30.50 in 5.0 mi NNW 3.5 mph - N/A   Overcast
8:53 AM 41.0 °F - 36.0 °F 82% 30.51 in 6.0 mi Calm Calm - N/A   Haze
9:53 AM 44.1 °F - 37.0 °F 76% 30.50 in 10.0 mi Calm Calm - N/A   Overcast
10:53 AM 45.0 °F 41.2 °F 36.0 °F 71% 30.48 in 10.0 mi NNW 6.9 mph - N/A   Overcast
11:53 AM 45.0 °F 42.6 °F 37.0 °F 74% 30.44 in 10.0 mi ENE 4.6 mph - N/A   Overcast
12:53 PM 45.0 °F 41.8 °F 36.0 °F 71% 30.41 in 10.0 mi ENE 5.8 mph - N/A   Overcast
1:45 PM 48.2 °F - 37.4 °F 66% 30.35 in 10.0 mi North 6.9 mph - N/A   Partly Cloudy
1:53 PM 46.9 °F - 36.0 °F 66% 30.38 in 10.0 mi NNW 6.9 mph - N/A   Partly Cloudy
2:53 PM 46.9 °F - 36.0 °F 66% 30.37 in 10.0 mi WNW 4.6 mph - N/A   Clear
3:53 PM 46.0 °F - 36.0 °F 68% 30.36 in 10.0 mi Calm Calm - N/A   Clear
4:53 PM 45.0 °F - 35.1 °F 68% 30.35 in 10.0 mi Calm Calm - N/A   Clear
5:53 PM 44.1 °F - 35.1 °F 71% 30.36 in 10.0 mi Calm Calm - N/A   Clear
6:53 PM 42.1 °F - 35.1 °F 76% 30.35 in 9.0 mi Calm Calm - N/A   Clear
7:53 PM 39.9 °F 36.7 °F 35.1 °F 83% 30.33 in 9.0 mi ENE 4.6 mph - N/A   Clear
8:53 PM 37.9 °F 33.5 °F 34.0 °F 86% 30.32 in 8.0 mi NW 5.8 mph - N/A   Clear
9:53 PM 36.0 °F - 33.1 °F 89% 30.30 in 7.0 mi Calm Calm - N/A   Clear
10:53 PM 36.0 °F 31.1 °F 33.1 °F 89% 30.29 in 7.0 mi NW 5.8 mph - N/A   Clear
11:53 PM 39.0 °F - 34.0 °F 82% 30.28 in 8.0 mi Calm Calm - N/A   Clear